Hourly Weather Senden

Today, 24 July, Saturday

Time Temperature Precipitation Wind Pressure Humidity
00:00 +19°C° 0 mm 1 mps 715 mmHg 87%
01:00 +17°C° 0 mm 2 mps 715 mmHg 88%
02:00 +18°C° 0 mm 1 mps 714 mmHg 88%
03:00 +18°C° 0 mm 1 mps 714 mmHg 88%
04:00 +16°C° 0 mm 1 mps 714 mmHg 88%
05:00 +18°C° 0.1 mm 1 mps 714 mmHg 88%
06:00 +19°C° 0.1 mm 1 mps 714 mmHg 87%
07:00 +20°C° 0 mm 1 mps 715 mmHg 87%
08:00 +21°C° 0 mm 1 mps 715 mmHg 83%
09:00 +21°C° 0 mm 2 mps 715 mmHg 80%
10:00 +24°C° 0 mm 2 mps 715 mmHg 76%
11:00 +24°C° 0 mm 2 mps 715 mmHg 74%
12:00 +25°C° 0 mm 2 mps 715 mmHg 72%
13:00 +26°C° 0 mm 2 mps 714 mmHg 69%
14:00 +26°C° 0 mm 2 mps 714 mmHg 69%
15:00 +27°C° 0 mm 2 mps 714 mmHg 69%
16:00 +27°C° 0 mm 2 mps 714 mmHg 69%
17:00 +25°C° 1.3 mm 3 mps 714 mmHg 77%
18:00 +22°C° 1.3 mm 3 mps 714 mmHg 84%
19:00 +19°C° 1.3 mm 3 mps 714 mmHg 92%
20:00 +18°C° 0.6 mm 3 mps 714 mmHg 93%
21:00 +17°C° 0.6 mm 2 mps 715 mmHg 94%
22:00 +18°C° 0.6 mm 1 mps 715 mmHg 95%
23:00 +16°C° 0 mm 2 mps 715 mmHg 95%

Tomorrow, 25 July, Sunday

Time Temperature Precipitation Wind Pressure Humidity
00:00 +16°C° 0 mm 2 mps 715 mmHg 95%
01:00 +16°C° 0 mm 3 mps 714 mmHg 95%
02:00 +16°C° 0 mm 2 mps 714 mmHg 95%
03:00 +16°C° 0 mm 2 mps 714 mmHg 94%
04:00 +15°C° 0 mm 1 mps 714 mmHg 94%
05:00 +16°C° 0.2 mm 1 mps 714 mmHg 94%
06:00 +18°C° 0.2 mm 1 mps 714 mmHg 93%
07:00 +16°C° 0.2 mm 0 mps 714 mmHg 93%
08:00 +17°C° 0.4 mm 0 mps 714 mmHg 92%
09:00 +19°C° 0.4 mm 1 mps 715 mmHg 91%
10:00 +20°C° 0.4 mm 1 mps 715 mmHg 90%
11:00 +20°C° 0.1 mm 1 mps 715 mmHg 87%
12:00 +21°C° 0.1 mm 1 mps 715 mmHg 84%
13:00 +22°C° 0.1 mm 1 mps 715 mmHg 82%
14:00 +21°C° 0.5 mm 2 mps 715 mmHg 82%
15:00 +21°C° 0.5 mm 2 mps 715 mmHg 82%
16:00 +21°C° 0.5 mm 2 mps 714 mmHg 82%
17:00 +21°C° 1 mm 2 mps 715 mmHg 84%
18:00 +21°C° 1 mm 2 mps 715 mmHg 86%
19:00 +21°C° 1 mm 1 mps 715 mmHg 88%
20:00 +20°C° 0 mm 1 mps 715 mmHg 89%
21:00 +19°C° 0 mm 1 mps 715 mmHg 89%
22:00 +18°C° 0 mm 1 mps 715 mmHg 90%
23:00 +18°C° 0.1 mm 1 mps 715 mmHg 92%

Day after tomorrow, 26 July, Monday

Time Temperature Precipitation Wind Pressure Humidity
00:00 +18°C° 0.1 mm 1 mps 715 mmHg 93%
01:00 +16°C° 0.1 mm 1 mps 715 mmHg 95%
02:00 +16°C° 0 mm 1 mps 715 mmHg 94%
03:00 +16°C° 0 mm 1 mps 715 mmHg 94%
04:00 +16°C° 0 mm 1 mps 715 mmHg 93%
05:00 +18°C° 0.1 mm 1 mps 715 mmHg 92%
06:00 +19°C° 0.1 mm 1 mps 715 mmHg 91%
07:00 +19°C° 0.1 mm 1 mps 716 mmHg 89%
08:00 +20°C° 0.4 mm 1 mps 716 mmHg 88%
09:00 +21°C° 0.4 mm 1 mps 716 mmHg 86%
10:00 +22°C° 0.4 mm 1 mps 717 mmHg 84%
11:00 +20°C° 0.9 mm 2 mps 717 mmHg 85%
12:00 +20°C° 0.9 mm 3 mps 717 mmHg 86%
13:00 +20°C° 0.9 mm 3 mps 717 mmHg 87%
14:00 +21°C° 0.3 mm 3 mps 717 mmHg 82%
15:00 +21°C° 0.3 mm 2 mps 717 mmHg 78%
16:00 +23°C° 0.3 mm 1 mps 717 mmHg 74%
17:00 +22°C° 0 mm 1 mps 717 mmHg 77%
18:00 +22°C° 0 mm 1 mps 717 mmHg 81%
19:00 +21°C° 0 mm 1 mps 717 mmHg 84%
20:00 +18°C° 0.1 mm 0 mps 717 mmHg 86%
21:00 +17°C° 0.1 mm 0 mps 717 mmHg 88%
22:00 +16°C° 0.1 mm 0 mps 717 mmHg 89%
23:00 +16°C° 0.1 mm 0 mps 717 mmHg 90%

27 July, Tuesday

Time Temperature Precipitation Wind Pressure Humidity
00:00 +15°C° 0.1 mm 0 mps 717 mmHg 91%
01:00 +15°C° 0.1 mm 0 mps 717 mmHg 91%
02:00 +15°C° 0.3 mm 0 mps 717 mmHg 92%
03:00 +15°C° 0.3 mm 0 mps 717 mmHg 93%
04:00 +14°C° 0.3 mm 0 mps 717 mmHg 94%
05:00 +16°C° 0.6 mm 1 mps 717 mmHg 94%
06:00 +18°C° 0.6 mm 1 mps 718 mmHg 94%
07:00 +18°C° 0.6 mm 1 mps 718 mmHg 93%
08:00 +20°C° 0.1 mm 1 mps 718 mmHg 89%
09:00 +21°C° 0.1 mm 1 mps 718 mmHg 85%
10:00 +22°C° 0.1 mm 1 mps 718 mmHg 80%
11:00 +23°C° 0 mm 1 mps 718 mmHg 76%
12:00 +24°C° 0 mm 1 mps 717 mmHg 72%
13:00 +25°C° 0 mm 1 mps 717 mmHg 67%
14:00 +25°C° 0.4 mm 1 mps 717 mmHg 68%
15:00 +25°C° 0.4 mm 1 mps 717 mmHg 69%
16:00 +26°C° 0.4 mm 1 mps 717 mmHg 69%
17:00 +24°C° 0.6 mm 1 mps 717 mmHg 74%
18:00 +23°C° 0.6 mm 1 mps 717 mmHg 78%
19:00 +22°C° 0.6 mm 1 mps 717 mmHg 82%
20:00 +21°C° 0.8 mm 1 mps 717 mmHg 86%
21:00 +19°C° 0.8 mm 2 mps 717 mmHg 89%
22:00 +18°C° 0.8 mm 2 mps 717 mmHg 93%
23:00 +18°C° 0.4 mm 2 mps 717 mmHg 93%

28 July, Wednesday

Time Temperature Precipitation Wind Pressure Humidity
00:00 +18°C° 0.4 mm 2 mps 717 mmHg 93%
01:00 +18°C° 0.4 mm 2 mps 717 mmHg 93%
02:00 +18°C° 0 mm 2 mps 716 mmHg 93%
03:00 +17°C° 0 mm 2 mps 716 mmHg 93%
04:00 +17°C° 0 mm 2 mps 716 mmHg 92%
05:00 +17°C° 0.3 mm 3 mps 716 mmHg 92%
06:00 +18°C° 0.3 mm 3 mps 716 mmHg 92%
07:00 +18°C° 0.3 mm 4 mps 716 mmHg 92%
08:00 +18°C° 2.9 mm 4 mps 717 mmHg 93%
09:00 +17°C° 2.9 mm 4 mps 717 mmHg 94%
10:00 +16°C° 2.9 mm 5 mps 718 mmHg 95%
11:00 +17°C° 0.6 mm 5 mps 718 mmHg 91%
12:00 +19°C° 0.6 mm 5 mps 718 mmHg 88%
13:00 +20°C° 0.6 mm 5 mps 718 mmHg 84%
14:00 +21°C° 0.2 mm 4 mps 718 mmHg 81%
15:00 +21°C° 0.2 mm 4 mps 718 mmHg 78%
16:00 +22°C° 0.2 mm 3 mps 718 mmHg 75%
17:00 +23°C° 0.1 mm 2 mps 718 mmHg 78%
18:00 +22°C° 0.1 mm 1 mps 718 mmHg 81%
19:00 +19°C° 0.1 mm 0 mps 718 mmHg 84%
20:00 +18°C° 0 mm 0 mps 718 mmHg 86%
21:00 +19°C° 0 mm 1 mps 718 mmHg 88%
22:00 +18°C° 0 mm 1 mps 718 mmHg 90%
23:00 +18°C° 0 mm 1 mps 718 mmHg 90%

29 July, Thursday

Time Temperature Precipitation Wind Pressure Humidity
00:00 +15°C° 0 mm 0 mps 718 mmHg 91%
01:00 +15°C° 0 mm 0 mps 718 mmHg 91%
02:00 +15°C° 0 mm 0 mps 718 mmHg 91%
03:00 +15°C° 0 mm 0 mps 718 mmHg 91%
04:00 +15°C° 0 mm 0 mps 717 mmHg 92%
05:00 +18°C° 0 mm 1 mps 717 mmHg 91%
06:00 +18°C° 0 mm 1 mps 717 mmHg 90%
07:00 +19°C° 0 mm 1 mps 717 mmHg 89%
08:00 +20°C° 0 mm 1 mps 717 mmHg 84%
09:00 +21°C° 0 mm 2 mps 717 mmHg 79%
10:00 +24°C° 0 mm 2 mps 717 mmHg 75%
11:00 +25°C° 0 mm 2 mps 717 mmHg 72%
12:00 +26°C° 0 mm 2 mps 717 mmHg 69%
13:00 +27°C° 0 mm 2 mps 716 mmHg 66%
14:00 +27°C° 0.2 mm 2 mps 716 mmHg 67%
15:00 +27°C° 0.2 mm 2 mps 716 mmHg 68%
16:00 +28°C° 0.2 mm 2 mps 716 mmHg 69%
17:00 +26°C° 1.5 mm 3 mps 716 mmHg 76%
18:00 +22°C° 1.5 mm 3 mps 715 mmHg 83%
19:00 +20°C° 1.5 mm 4 mps 715 mmHg 91%
20:00 +20°C° 1.4 mm 4 mps 716 mmHg 92%
21:00 +19°C° 1.4 mm 4 mps 717 mmHg 94%
22:00 +18°C° 1.4 mm 4 mps 717 mmHg 96%
23:00 +18°C° 0.4 mm 3 mps 717 mmHg 95%
Show more

We Need Your Consent

Meteoprog and our Service Providers may store and access personal data such as cookies, device identifiers or other similar technologies on your device and process such data to personalise content and ads, as well as provide social media features and to analyse the traffic.

  • Store and/or access information on your device

    Cookies, device identifiers or other information can be stored or accessed on your device for the purposes indicated above.

  • Personalised ads and content, ad and content measurement, audience insights, and products development

    Ads and content can be personalised based on a profile. More data can be added to better personalise ads and content. Ad and content performance can be measured. Insights about the audience who saw the ads and content can be derived. Such data can be used to develop or improve user’s experience, systems and software.

By clicking ‘I Agree’ you will allow the use of indicated cookies, device identifiers, web beacons or other similar technologies. Your settings can be changed in the browser on your device.

For certain purposes, legitimate interests may be relied on, rather than consent. You can read more about this in our Privacy and Cookie Policy.